sat.trackr.live / text

‹ back to catalog

QIANFAN-105

NORAD 66047 · 2025-233Q

PAYLOAD ACTIVE UNKNOWN

§ Identity

Operator
Country
PRC
Launch date
2025-10-17
Launch site
TAISC
Launch vehicle
Mass (kg)
RCS (m²)

External: N2YO · Heavens-Above · Gunter

§ Orbital elements

Epoch: 2026-09-20T15:52:14.833920Z

Period
106.59 min
Inclination
89.0078°
Eccentricity
0.0001812
Mean motion
13.51029845 rev/d
Perigee alt
1,067.1 km
Apogee alt
1,069.8 km
Semi-major
7,446.6 km
B*
3.1929e-5
RAAN
33.3134°
Arg perigee
99.0225°
Mean anomaly
261.1131°
Rev number
4,623

§ Raw data

QIANFAN-1051 66047U 25233Q   26263.66128280  .00000033  00000+0  31929-4 0  99932 66047  89.0078  33.3134 0001812  99.0225 261.1131 13.51029845 46231

JSON: /api/v1/satellites/66047 · /tle

For live sub-satellite position, see the globe view (requires WebGL).

§ Visibility from observer

Set your observer location to see the next 7 days of passes ≥ 10°. The values pass through the URL so the page stays shareable.

No JS? Fill the form by hand. The geolocation button needs JavaScript.